Jackson, TN

3:52 AM CST on November 15, 2019 (GMT -0600)
McKellar-Sipes Regional

Weather History for KMKL - September, 2019

Change the Weather History Date:

Saturday, September 14, 2019

  Actual Average Record
Temperature  
Mean Temperature 80 °F 72 °F  
Max Temperature 95 °F 85 °F 98 °F (1980)
Min Temperature 66 °F 60 °F 42 °F (1964)
Degree Days  
Heating Degree Days 0 0  
Month to date heating degree days 0 0  
Since 1 July heating degree days 0 0  
Cooling Degree Days 16 8  
Month to date cooling degree days 191 134  
Year to date cooling degree days 1652 1557  
Growing Degree Days 30 (Base 50)    
Moisture  
Dew Point 66 °F    
Average Humidity 68    
Maximum Humidity 93    
Minimum Humidity 41    
Precipitation  
Precipitation 0.00 in 0.11 in 1.58 in (2002)
Month to date precipitation 0.00 1.40  
Year to date precipitation 46.71 37.27  
Sea Level Pressure  
Sea Level Pressure 30.17 in    
Wind  
Wind Speed 3 mph ()    
Max Wind Speed 10 mph    
Max Gust Speed 15 mph    
Visibility 10.0 miles    
Events      
T = Trace of Precipitation, MM = Missing Value Source: Averaged Metar Reports

Daily Weather History Graph

Daily Weather History Graph

Search for Another Location

Airport or City:

Astronomy

Sep. 14, 2019 Rise Set
Actual Time 6:37 AM CDT 7:04 PM CDT
Civil Twilight 6:11 AM CDT 7:30 PM CDT
Nautical Twilight 5:41 AM CDT 8:00 PM CDT
Astronomical Twilight 5:11 AM CDT 8:30 PM CDT
Moon 7:45 PM CDT (9/14) 6:52 AM CDT (9/14)
Length of Visible Light 13h 18m
Length of Day
12h 27m
Full, 100% of the Moon is Illuminated
Sep 14
Full
Sep 21
Last Quarter
Sep 28
New
Oct 5
First Quarter
Oct 13
Full

Hourly Weather History & Observations

Time (CDT) Temp. Heat Index Dew Point Humidity Pressure Visibility Wind Dir Wind Speed Gust Speed Precip Events Conditions
12:53 AM 71.1 °F - 69.1 °F 93% 30.17 in 10.0 mi North - - N/A   Clear
1:53 AM 69.1 °F - 66.9 °F 93% 30.17 in 10.0 mi Calm Calm - N/A   Clear
2:53 AM 69.1 °F - 66.9 °F 93% 30.18 in 10.0 mi North 3.5 mph - N/A   Clear
3:53 AM 70.0 °F - 64.0 °F 81% 30.18 in 10.0 mi NNE 4.6 mph - N/A   Clear
4:53 AM 69.1 °F - 61.0 °F 75% 30.19 in 10.0 mi Calm Calm - N/A   Clear
5:53 AM 66.9 °F - 61.0 °F 81% 30.21 in 10.0 mi North 5.8 mph - N/A   Clear
6:53 AM 68.0 °F - 61.0 °F 78% 30.22 in 10.0 mi North - - N/A   Clear
7:53 AM 72.0 °F - 64.0 °F 76% 30.23 in 10.0 mi NNE 4.6 mph - N/A   Clear
8:53 AM 77.0 °F - 63.0 °F 62% 30.24 in 10.0 mi East 5.8 mph - N/A   Clear
9:53 AM 81.0 °F 82.5 °F 64.0 °F 56% 30.24 in 10.0 mi ENE 8.1 mph - N/A   Clear
10:53 AM 84.9 °F 85.9 °F 63.0 °F 48% 30.23 in 10.0 mi East 6.9 mph - N/A   Clear
11:53 AM 88.0 °F 88.7 °F 63.0 °F 43% 30.21 in 10.0 mi ENE 4.6 mph - N/A   Clear
12:53 PM 91.0 °F 93.0 °F 64.9 °F 42% 30.19 in 10.0 mi Variable 6.9 mph - N/A   Clear
1:53 PM 93.9 °F 97.5 °F 66.9 °F 41% 30.17 in 10.0 mi NE 8.1 mph - N/A   Clear
2:53 PM 91.9 °F 94.1 °F 64.9 °F 41% 30.15 in 10.0 mi East 3.5 mph - N/A   Clear
3:53 PM 93.9 °F 97.5 °F 66.9 °F 41% 30.13 in 10.0 mi Variable 4.6 mph - N/A   Clear
4:53 PM 93.0 °F 96.4 °F 66.9 °F 42% 30.12 in 10.0 mi North 5.8 mph - N/A   Clear
5:53 PM 90.0 °F 93.6 °F 68.0 °F 48% 30.12 in 10.0 mi NNE 6.9 mph - N/A   Clear
6:53 PM 84.0 °F 87.8 °F 69.1 °F 61% 30.12 in 10.0 mi NE 4.6 mph - N/A   Clear
7:53 PM 77.0 °F - 69.1 °F 76% 30.13 in 10.0 mi Calm Calm - N/A   Clear
8:53 PM 73.0 °F - 69.1 °F 87% 30.14 in 10.0 mi Calm Calm - N/A   Clear
9:53 PM 73.0 °F - 69.1 °F 87% 30.15 in 10.0 mi Calm Calm - N/A   Clear
10:53 PM 71.1 °F - 69.1 °F 93% 30.15 in 10.0 mi Calm Calm - N/A   Clear
11:53 PM 70.0 °F - 66.9 °F 90% 30.14 in 10.0 mi Calm Calm - N/A   Clear